Weather History for Salzburg-Flughafen, Austria

Change the Weather History Date:

Wednesday, April 17, 2013

  Actual Average Record
Temperature  
Mean Temperature 62 °F -  
Max Temperature 71 °F 61 °F - ()
Min Temperature 53 °F 42 °F - ()
Degree Days  
Heating Degree Days 3    
Growing Degree Days 12 (Base 50)    
Moisture  
Dew Point 51 °F    
Average Humidity 73    
Maximum Humidity 100    
Minimum Humidity 38    
Precipitation  
Precipitation 0.01 in 0.14 in - ()
Sea Level Pressure  
Sea Level Pressure 30.23 in    
Wind  
Wind Speed 7 mph ()    
Max Wind Speed 13 mph    
Max Gust Speed -    
Visibility 7.6 miles    
Events Rain    
T = Trace of Precipitation, MM = Missing Value Source: Averaged Metar Reports

Daily Weather History Graph

Daily Weather History Graph

Search for Another Location

Airport:

Trip Planner

Search our weather history database for the weather conditions in past years. The results will help you decide how hot, cold, wet, or windy it might be!

Date:

Astronomy

Apr. 17, 2013 Rise Set
Actual Time 6:15 AM CEST 8:00 PM CEST
Civil Twilight 5:42 AM CEST 8:33 PM CEST
Nautical Twilight 5:02 AM CEST 9:13 PM CEST
Astronomical Twilight 4:18 AM CEST 9:57 PM CEST
Moon 11:03 AM CEST (4/17) 1:37 AM CEST (4/17)
Length of Visible Light 14h 51m
Length of Day
13h 45m
Waxing Crescent, 40% of the Moon is Illuminated
Apr 17
Waxing Crescent
Apr 18
First Quarter
Apr 25
Full
May 2
Last Quarter
May 10
New

Hourly Weather History & Observations

Time (CEST) Temp. Dew Point Humidity Pressure Visibility Wind Dir Wind Speed Gust Speed Precip Events Conditions
12:20 AM 55.4 °F 55.4 °F 100% 30.24 in 5.6 mi South 5.8 mph - N/A Rain Rain
12:50 AM 55.4 °F 55.4 °F 100% 30.24 in 6.2 mi SSW 8.1 mph - N/A Rain Light Rain
1:20 AM 55.4 °F 53.6 °F 94% 30.24 in 6.2 mi SSE 10.4 mph - N/A Rain Light Rain
1:50 AM 53.6 °F 53.6 °F 100% 30.24 in 6.2 mi South 9.2 mph - N/A   Overcast
2:00 AM 54 °F 53 °F 95% 30.24 in 25 mi South 8.9 mph - -  
2:20 AM 53.6 °F 51.8 °F 94% 30.24 in 6.2 mi SSE 10.4 mph - N/A Rain Light Rain Showers
2:50 AM 53.6 °F 51.8 °F 94% 30.24 in 6.2 mi South 10.4 mph - N/A Rain Light Rain Showers
3:20 AM 53.6 °F 51.8 °F 94% 30.24 in 6.2 mi SSE 12.7 mph - N/A   Overcast
3:50 AM 53.6 °F 51.8 °F 94% 30.24 in 6.2 mi SSE 12.7 mph - N/A   Mostly Cloudy
4:20 AM 53.6 °F 51.8 °F 94% 30.24 in 6.2 mi SSE 12.7 mph - N/A   Mostly Cloudy
4:50 AM 53.6 °F 50.0 °F 88% 30.24 in 6.2 mi SSE 12.7 mph - N/A   Mostly Cloudy
5:00 AM 54 °F 51 °F 84% 30.25 in 16 mi SSE 13.4 mph - -   Partly Cloudy
5:20 AM 53.6 °F 50.0 °F 88% 30.24 in 6.2 mi SSE 12.7 mph - N/A   Mostly Cloudy
5:50 AM 53.6 °F 50.0 °F 88% 30.24 in 6.2 mi SSE 10.4 mph - N/A   Mostly Cloudy
6:20 AM 53.6 °F 50.0 °F 88% 30.24 in 6.2 mi SSE 10.4 mph - N/A   Mostly Cloudy
6:50 AM 53.6 °F 50.0 °F 88% 30.27 in 6.2 mi SSE 10.4 mph - N/A   Mostly Cloudy
7:20 AM 53.6 °F 50.0 °F 88% 30.27 in 6.2 mi SSE 6.9 mph - N/A Rain Light Rain Showers
7:50 AM 53.6 °F 50.0 °F 88% 30.27 in 6.2 mi South 9.2 mph - N/A Rain Light Rain
8:00 AM 54 °F 50 °F 82% 30.30 in 16 mi South 8.9 mph - - Rain Light Rain
8:20 AM 53.6 °F 50.0 °F 88% 30.27 in 6.2 mi SSE 11.5 mph - N/A   Mostly Cloudy
8:50 AM 55.4 °F 50.0 °F 82% 30.27 in 6.2 mi SSE 11.5 mph - N/A   Mostly Cloudy
9:20 AM 55.4 °F 51.8 °F 88% 30.27 in 6.2 mi SSE 10.4 mph - N/A   Mostly Cloudy
9:50 AM 55.4 °F 51.8 °F 88% 30.30 in 6.2 mi SSE 9.2 mph - N/A   Mostly Cloudy
10:20 AM 57.2 °F 51.8 °F 82% 30.30 in 6.2 mi SSE 11.5 mph - N/A   Mostly Cloudy
10:50 AM 60.8 °F 51.8 °F 72% 30.27 in 6.2 mi SSE 10.4 mph - N/A   Mostly Cloudy
11:00 AM 60 °F 52 °F 67% 30.28 in 22 mi SSE 11.2 mph - -   Partly Cloudy
11:20 AM 62.6 °F 53.6 °F 72% 30.27 in 6.2 mi SSE 10.4 mph - N/A   Mostly Cloudy
11:50 AM 62.6 °F 51.8 °F 68% 30.27 in 6.2 mi SSE 10.4 mph - N/A   Mostly Cloudy
12:20 PM 64.4 °F 51.8 °F 64% 30.27 in 6.2 mi SSE 6.9 mph - N/A   Mostly Cloudy
12:50 PM 66.2 °F 50.0 °F 56% 30.27 in 6.2 mi Variable 2.3 mph - N/A   Mostly Cloudy
1:20 PM 66.2 °F 48.2 °F 52% 30.27 in 6.2 mi Variable 2.3 mph - N/A   Mostly Cloudy
1:50 PM 68.0 °F 48.2 °F 49% 30.27 in 6.2 mi Variable 3.5 mph - N/A   Mostly Cloudy
2:00 PM 68 °F 49 °F 39% 30.24 in 19 mi 4.5 mph - -   Partly Cloudy
2:20 PM 68.0 °F 48.2 °F 49% 30.24 in 6.2 mi Variable 2.3 mph - N/A   Mostly Cloudy
2:50 PM 69.8 °F 50.0 °F 49% 30.24 in 6.2 mi Variable 1.2 mph - N/A   Mostly Cloudy
3:20 PM 69.8 °F 51.8 °F 53% 30.21 in 6.2 mi Variable 2.3 mph - N/A   Mostly Cloudy
3:50 PM 69.8 °F 50.0 °F 49% 30.21 in 6.2 mi Variable 2.3 mph - N/A   Mostly Cloudy
4:20 PM 71.6 °F 51.8 °F 50% 30.21 in 6.2 mi Variable 2.3 mph - N/A   Mostly Cloudy
4:50 PM 71.6 °F 51.8 °F 50% 30.18 in 6.2 mi Variable 1.2 mph - N/A   Mostly Cloudy
5:00 PM 71 °F 51 °F 38% 30.15 in 19 mi 2.2 mph - -   Scattered Clouds
5:20 PM 71.6 °F 50.0 °F 46% 30.18 in 6.2 mi Variable 1.2 mph - N/A   Mostly Cloudy
5:50 PM 69.8 °F 50.0 °F 49% 30.18 in 6.2 mi North 4.6 mph - N/A   Mostly Cloudy
6:20 PM 69.8 °F 50.0 °F 49% 30.18 in - NNE 5.8 mph - N/A   Clear
6:50 PM 68.0 °F 50.0 °F 52% 30.18 in - NNE 8.1 mph - N/A   Clear
7:20 PM 68.0 °F 50.0 °F 52% 30.18 in - NNE 4.6 mph - N/A   Clear
7:50 PM 64.4 °F 51.8 °F 64% 30.18 in - North 3.5 mph - N/A   Clear
8:00 PM 65 °F 51 °F 50% 30.15 in 25 mi North 4.5 mph - -   Mostly Cloudy
8:20 PM 62.6 °F 51.8 °F 68% 30.18 in - NNE 3.5 mph - N/A   Clear
8:50 PM 59.0 °F 51.8 °F 77% 30.18 in - Variable 2.3 mph - N/A   Clear
9:20 PM 59.0 °F 50.0 °F 72% 30.18 in - South 5.8 mph - N/A   Clear
9:50 PM 59.0 °F 50.0 °F 72% 30.18 in - South 5.8 mph - N/A   Clear
10:50 PM 55.4 °F 50.0 °F 82% 30.15 in - SSE 4.6 mph - N/A   Clear
11:00 PM 55 °F 49 °F 76% 30.17 in 19 mi SSE 4.5 mph - -   Partly Cloudy
11:20 PM 55.4 °F 48.2 °F 77% 30.15 in - SSE 6.9 mph - N/A   Clear
11:50 PM 55.4 °F 48.2 °F 77% 30.15 in 6.2 mi SSE 6.9 mph - N/A   Partly Cloudy